| time (UTC) | temp F | wind direction | speed knots | gust knots | rain 1hr in | rain 24hr in | rain mn in | humidity % | barometer mb |
| 20260509201019 | 91 | 34 | 1.7 | 2.6 | 0.00 | 0.00 | 0.00 | 39 | 1009.8 |
| 20260509200022 | 91 | 139 | 1.7 | 3.5 | 0.00 | 0.00 | 0.00 | 39 | 1009.9 |
| 20260509195019 | 91 | 243 | 0.9 | 1.7 | 0.00 | 0.00 | 0.00 | 42 | 1010.0 |
| 20260509194024 | 91 | 49 | 1.7 | 3.5 | 0.00 | 0.00 | 0.00 | 44 | 1010.2 |
| 20260509193101 | 90 | 39 | 2.6 | 5.2 | 0.00 | 0.00 | 0.00 | 44 | 1010.2 |
| 20260509192027 | 90 | 214 | 1.7 | 4.3 | 0.00 | 0.00 | 0.00 | 44 | 1010.2 |
| 20260509191024 | 90 | 54 | 1.7 | 4.3 | 0.00 | 0.00 | 0.00 | 44 | 1010.3 |
| 20260509190021 | 90 | 31 | 1.7 | 3.5 | 0.00 | 0.00 | 0.00 | 45 | 1010.4 |
| 20260509185024 | 89 | 17 | 1.7 | 5.2 | 0.00 | 0.00 | 0.00 | 47 | 1010.4 |
| 20260509184023 | 90 | 77 | 1.7 | 3.5 | 0.00 | 0.00 | 0.00 | 46 | 1010.5 |
| 20260509183020 | 89 | 192 | 1.7 | 2.6 | 0.00 | 0.00 | 0.00 | 48 | 1010.7 |
| 20260509182018 | 88 | 225 | 1.7 | 5.2 | 0.00 | 0.00 | 0.00 | 47 | 1010.6 |
| 20260509181023 | 89 | 328 | 1.7 | 4.3 | 0.00 | 0.00 | 0.00 | 47 | 1010.8 |
| 20260509180020 | 88 | 331 | 0.9 | 1.7 | 0.00 | 0.00 | 0.00 | 48 | 1010.8 |
| 20260509175023 | 86 | 211 | 1.7 | 6.1 | 0.00 | 0.00 | 0.00 | 50 | 1010.8 |
| 20260509174052 | 89 | 219 | 1.7 | 2.6 | 0.00 | 0.00 | 0.00 | 48 | 1011.0 |
| 20260509173019 | 88 | 253 | 0.9 | 1.7 | 0.00 | 0.00 | 0.00 | 49 | 1011.0 |
| 20260509172025 | 86 | 224 | 2.6 | 6.1 | 0.00 | 0.00 | 0.00 | 49 | 1011.0 |
| 20260509171022 | 86 | 196 | 2.6 | 6.1 | 0.00 | 0.00 | 0.00 | 50 | 1011.2 |
| 20260509170019 | 86 | 258 | 1.7 | 5.2 | 0.00 | 0.00 | 0.00 | 49 | 1011.2 |
| 20260509165022 | 86 | 229 | 2.6 | 5.2 | 0.00 | 0.00 | 0.00 | 51 | 1011.3 |
| 20260509164020 | 85 | 202 | 1.7 | 5.2 | 0.00 | 0.00 | 0.00 | 52 | 1011.4 |
| 20260509163028 | 84 | 211 | 1.7 | 2.6 | 0.00 | 0.00 | 0.00 | 52 | 1011.4 |
| 20260509162026 | 83 | 218 | 2.6 | 6.1 | 0.00 | 0.00 | 0.00 | 53 | 1011.4 |
| 20260509161020 | 84 | 204 | 2.6 | 5.2 | 0.00 | 0.00 | 0.00 | 53 | 1011.3 |
| 20260509160043 | 83 | 256 | 1.7 | 3.5 | 0.00 | 0.00 | 0.00 | 53 | 1011.1 |
| 20260509155021 | 82 | 314 | 2.6 | 4.3 | 0.00 | 0.00 | 0.00 | 53 | 1011.0 |
| 20260509154041 | 82 | 204 | 2.6 | 3.5 | 0.00 | 0.00 | 0.00 | 55 | 1011.0 |
| 20260509153049 | 81 | 29 | 1.7 | 3.5 | 0.00 | 0.00 | 0.00 | 57 | 1011.0 |
| 20260509152025 | 80 | 171 | 1.7 | 2.6 | 0.00 | 0.00 | 0.00 | 61 | 1011.0 |
| 20260509151040 | 79 | 284 | 1.7 | 2.6 | 0.00 | 0.00 | 0.00 | 62 | 1010.9 |
| 20260509150021 | 78 | 218 | 1.7 | 5.2 | 0.00 | 0.00 | 0.00 | 66 | 1011.0 |
| 20260509145020 | 76 | 268 | 1.7 | 3.5 | 0.00 | 0.00 | 0.00 | 69 | 1011.0 |
| 20260509144028 | 76 | 235 | 0.9 | 2.6 | 0.00 | 0.00 | 0.00 | 70 | 1011.2 |
| 20260509143026 | 75 | 193 | 1.7 | 2.6 | 0.00 | 0.00 | 0.00 | 72 | 1011.2 |
| 20260509142021 | 75 | 271 | 1.7 | 3.5 | 0.00 | 0.00 | 0.00 | 73 | 1011.2 |
| 20260509141018 | 73 | 217 | 2.6 | 5.2 | 0.00 | 0.00 | 0.00 | 75 | 1011.3 |
| 20260509140020 | 74 | 198 | 2.6 | 5.2 | 0.00 | 0.00 | 0.00 | 75 | 1011.3 |
| 20260509135038 | 74 | 161 | 0.9 | 4.3 | 0.00 | 0.00 | 0.00 | 75 | 1011.1 |
| 20260509134027 | 73 | 203 | 2.6 | 5.2 | 0.00 | 0.00 | 0.00 | 78 | 1011.1 |
| 20260509133025 | 72 | 190 | 1.7 | 3.5 | 0.00 | 0.00 | 0.00 | 79 | 1010.9 |
| 20260509132023 | 71 | 181 | 0.9 | 2.6 | 0.00 | 0.00 | 0.00 | 80 | 1010.7 |
| 20260509131041 | 71 | 205 | 1.7 | 4.3 | 0.00 | 0.00 | 0.00 | 81 | 1010.9 |
| 20260509130019 | 70 | 205 | 0.9 | 1.7 | 0.00 | 0.00 | 0.00 | 83 | 1010.9 |
| 20260509125108 | 69 | 165 | 0.9 | 1.7 | 0.00 | 0.00 | 0.00 | 83 | 1010.8 |
| 20260509124026 | 68 | 62 | 0.0 | 1.7 | 0.00 | 0.00 | 0.00 | 85 | 1010.9 |
| 20260509123044 | 67 | 173 | 0.9 | 3.5 | 0.00 | 0.00 | 0.00 | 84 | 1010.8 |
| 20260509122022 | 67 | 209 | 0.9 | 1.7 | 0.00 | 0.00 | 0.00 | 84 | 1010.6 |
| 20260509121053 | 67 | 203 | 0.0 | 0.9 | 0.00 | 0.00 | 0.00 | 85 | 1010.7 |
| 20260509120030 | 67 | 212 | 0.9 | 1.7 | 0.00 | 0.00 | 0.00 | 86 | 1010.6 |
| 20260509115027 | 67 | 179 | 0.9 | 2.6 | 0.00 | 0.00 | 0.00 | 86 | 1010.5 |
| 20260509114025 | 67 | 22 | 0.0 | 0.9 | 0.00 | 0.06 | 0.00 | 86 | 1010.0 |
| 20260509113023 | 67 | 0.0 | 0.9 | 0.00 | 0.06 | 0.00 | 85 | 1009.8 | |
| 20260509112021 | 68 | 329 | 0.9 | 2.6 | 0.00 | 0.06 | 0.00 | 85 | 1009.6 |
| 20260509111018 | 67 | 184 | 0.9 | 2.6 | 0.00 | 0.06 | 0.00 | 84 | 1009.6 |
| 20260509110029 | 67 | 212 | 0.9 | 3.5 | 0.00 | 0.06 | 0.00 | 83 | 1009.8 |
| 20260509105026 | 67 | 16 | 0.0 | 1.7 | 0.00 | 0.06 | 0.00 | 82 | 1009.5 |
| 20260509104023 | 67 | 14 | 0.0 | 0.9 | 0.00 | 0.06 | 0.00 | 81 | 1009.6 |
| 20260509103021 | 68 | 0.0 | 0.0 | 0.00 | 0.06 | 0.00 | 79 | 1009.5 | |
| 20260509102020 | 69 | 170 | 0.0 | 0.9 | 0.00 | 0.06 | 0.00 | 78 | 1009.5 |
| 20260509101051 | 69 | 200 | 0.0 | 1.7 | 0.00 | 0.06 | 0.00 | 78 | 1009.3 |
| 20260509100048 | 69 | 196 | 0.9 | 1.7 | 0.00 | 0.06 | 0.00 | 77 | 1009.4 |
| 20260509095025 | 70 | 218 | 0.9 | 1.7 | 0.00 | 0.06 | 0.00 | 76 | 1009.3 |
| 20260509094022 | 70 | 65 | 0.9 | 1.7 | 0.00 | 0.06 | 0.00 | 75 | 1009.0 |
| 20260509093040 | 70 | 34 | 0.9 | 1.7 | 0.00 | 0.06 | 0.00 | 75 | 1008.5 |
| 20260509092029 | 70 | 344 | 0.0 | 1.7 | 0.00 | 0.06 | 0.00 | 76 | 1008.5 |
| 20260509091027 | 70 | 30 | 0.9 | 2.6 | 0.00 | 0.06 | 0.00 | 79 | 1008.4 |
| 20260509090027 | 70 | 81 | 2.6 | 5.2 | 0.00 | 0.06 | 0.00 | 82 | 1008.0 |
| 20260509085044 | 70 | 194 | 0.9 | 2.6 | 0.00 | 0.06 | 0.00 | 83 | 1007.1 |
| 20260509084021 | 70 | 171 | 2.6 | 5.2 | 0.00 | 0.06 | 0.00 | 82 | 1007.2 |
| 20260509083019 | 70 | 115 | 2.6 | 5.2 | 0.00 | 0.06 | 0.00 | 81 | 1007.0 |
| 20260509082028 | 70 | 81 | 3.5 | 5.2 | 0.00 | 0.06 | 0.00 | 81 | 1006.7 |
| 20260509081029 | 69 | 64 | 2.6 | 6.1 | 0.00 | 0.06 | 0.00 | 83 | 1007.1 |
| 20260509080026 | 69 | 46 | 0.9 | 2.6 | 0.00 | 0.06 | 0.00 | 86 | 1007.8 |
| 20260509075023 | 69 | 168 | 0.9 | 2.6 | 0.00 | 0.06 | 0.00 | 86 | 1008.8 |
| 20260509074020 | 69 | 174 | 0.9 | 2.6 | 0.00 | 0.06 | 0.00 | 87 | 1009.5 |
| 20260509073028 | 69 | 204 | 1.7 | 4.3 | 0.00 | 0.06 | 0.00 | 87 | 1009.9 |
| 20260509072027 | 69 | 189 | 2.6 | 5.2 | 0.00 | 0.06 | 0.00 | 88 | 1010.2 |
| 20260509071047 | 69 | 238 | 1.7 | 3.5 | 0.00 | 0.06 | 0.00 | 88 | 1010.2 |
| 20260509070024 | 69 | 191 | 3.5 | 6.1 | 0.00 | 0.06 | 0.00 | 88 | 1011.0 |
| 20260509065021 | 69 | 187 | 3.5 | 6.1 | 0.00 | 0.06 | 0.00 | 88 | 1011.4 |
| 20260509064018 | 69 | 204 | 3.5 | 4.3 | 0.00 | 0.06 | 0.00 | 88 | 1011.6 |
| 20260509063027 | 69 | 196 | 1.7 | 3.5 | 0.00 | 0.06 | 0.00 | 87 | 1011.5 |
| 20260509062025 | 69 | 176 | 1.7 | 2.6 | 0.00 | 0.06 | 0.00 | 87 | 1011.4 |
| 20260509061023 | 69 | 177 | 0.0 | 1.7 | 0.00 | 0.06 | 0.00 | 87 | 1011.5 |
| 20260509060024 | 69 | 0.0 | 0.0 | 0.00 | 0.06 | 0.00 | 86 | 1011.3 | |
| 20260509055021 | 70 | 0.0 | 0.0 | 0.00 | 0.06 | 0.00 | 85 | 1011.3 | |
| 20260509054028 | 70 | 175 | 0.0 | 0.9 | 0.00 | 0.06 | 0.00 | 85 | 1011.3 |
| 20260509053026 | 70 | 0.0 | 0.0 | 0.00 | 0.06 | 0.00 | 85 | 1011.5 | |
| 20260509052024 | 70 | 0.0 | 0.9 | 0.00 | 0.06 | 0.00 | 84 | 1011.5 | |
| 20260509051025 | 71 | 96 | 0.0 | 1.7 | 0.00 | 0.06 | 0.00 | 84 | 1011.5 |
| 20260509050022 | 71 | 292 | 0.0 | 0.9 | 0.00 | 0.06 | 0.00 | 83 | 1011.0 |
| 20260509045020 | 71 | 48 | 0.0 | 1.7 | 0.00 | 0.06 | 0.06 | 83 | 1010.7 |
| 20260509044028 | 71 | 66 | 0.9 | 2.6 | 0.00 | 0.06 | 0.06 | 82 | 1010.4 |
| 20260509043025 | 71 | 82 | 0.9 | 1.7 | 0.00 | 0.06 | 0.06 | 82 | 1010.3 |
| 20260509042047 | 71 | 116 | 1.7 | 2.6 | 0.00 | 0.06 | 0.06 | 81 | 1010.2 |
| 20260509041021 | 72 | 102 | 1.7 | 2.6 | 0.00 | 0.06 | 0.06 | 81 | 1010.3 |
| 20260509040022 | 72 | 60 | 0.9 | 2.6 | 0.00 | 0.06 | 0.06 | 80 | 1010.4 |
| 20260509035019 | 72 | 69 | 1.7 | 2.6 | 0.00 | 0.06 | 0.06 | 80 | 1010.3 |
| 20260509034025 | 72 | 39 | 0.9 | 2.6 | 0.00 | 0.06 | 0.06 | 80 | 1010.5 |
| 20260509033024 | 72 | 21 | 0.9 | 2.6 | 0.00 | 0.06 | 0.06 | 80 | 1010.4 |
| 20260509032022 | 72 | 67 | 1.7 | 3.5 | 0.00 | 0.06 | 0.06 | 80 | 1010.0 |
| 20260509031020 | 72 | 58 | 2.6 | 5.2 | 0.00 | 0.06 | 0.06 | 79 | 1009.3 |
| 20260509030020 | 72 | 73 | 3.5 | 6.1 | 0.00 | 0.06 | 0.06 | 79 | 1008.9 |
| 20260509025027 | 72 | 55 | 2.6 | 5.2 | 0.00 | 0.06 | 0.06 | 79 | 1009.2 |
| 20260509024045 | 72 | 78 | 2.6 | 5.2 | 0.00 | 0.06 | 0.06 | 78 | 1008.9 |
| 20260509023023 | 72 | 92 | 1.7 | 3.5 | 0.00 | 0.06 | 0.06 | 78 | 1008.6 |
| 20260509022020 | 72 | 83 | 1.7 | 3.5 | 0.00 | 0.06 | 0.06 | 77 | 1008.4 |
| 20260509021019 | 73 | 102 | 4.3 | 8.7 | 0.00 | 0.06 | 0.06 | 77 | 1008.1 |
| 20260509020019 | 73 | 94 | 3.5 | 7.8 | 0.00 | 0.06 | 0.06 | 76 | 1007.9 |
| 20260509015025 | 73 | 96 | 2.6 | 5.2 | 0.00 | 0.06 | 0.06 | 76 | 1008.5 |
| 20260509014023 | 73 | 126 | 1.7 | 3.5 | 0.00 | 0.06 | 0.06 | 75 | 1008.7 |
| 20260509013022 | 73 | 69 | 1.7 | 2.6 | 0.00 | 0.06 | 0.06 | 75 | 1008.7 |
| 20260509012020 | 73 | 45 | 1.7 | 4.3 | 0.00 | 0.06 | 0.06 | 75 | 1008.7 |
| 20260509011021 | 73 | 95 | 1.7 | 3.5 | 0.00 | 0.06 | 0.06 | 74 | 1008.6 |
| 20260509010026 | 73 | 173 | 1.7 | 2.6 | 0.00 | 0.06 | 0.06 | 74 | 1008.4 |
| 20260509005052 | 74 | 124 | 1.7 | 4.3 | 0.00 | 0.06 | 0.06 | 73 | 1008.3 |
| 20260509004022 | 74 | 125 | 1.7 | 4.3 | 0.00 | 0.06 | 0.06 | 73 | 1008.1 |
| 20260509003023 | 74 | 115 | 2.6 | 6.1 | 0.00 | 0.06 | 0.06 | 72 | 1008.2 |
| 20260509002023 | 74 | 147 | 1.7 | 5.2 | 0.00 | 0.06 | 0.06 | 72 | 1008.1 |
| 20260509001020 | 74 | 147 | 2.6 | 5.2 | 0.00 | 0.06 | 0.06 | 72 | 1008.1 |
| 20260509000035 | 74 | 125 | 2.6 | 5.2 | 0.00 | 0.06 | 0.06 | 72 | 1008.3 |
| 20260508235023 | 74 | 249 | 1.7 | 3.5 | 0.00 | 0.06 | 0.06 | 71 | 1008.5 |
| 20260508234021 | 75 | 61 | 3.5 | 5.2 | 0.00 | 0.06 | 0.06 | 70 | 1008.5 |
| 20260508233025 | 75 | 129 | 1.7 | 4.3 | 0.00 | 0.06 | 0.06 | 70 | 1008.5 |
| 20260508232043 | 75 | 96 | 3.5 | 6.1 | 0.00 | 0.06 | 0.06 | 69 | 1008.6 |
| 20260508231019 | 75 | 99 | 1.7 | 4.3 | 0.00 | 0.06 | 0.06 | 69 | 1008.7 |
| 20260508230044 | 75 | 105 | 3.5 | 6.1 | 0.00 | 0.06 | 0.06 | 68 | 1008.6 |
| 20260508225022 | 76 | 90 | 3.5 | 7.0 | 0.00 | 0.06 | 0.06 | 67 | 1008.6 |
| 20260508224020 | 76 | 123 | 3.5 | 6.1 | 0.00 | 0.06 | 0.06 | 66 | 1008.6 |
| 20260508223024 | 76 | 152 | 3.5 | 6.1 | 0.00 | 0.06 | 0.06 | 66 | 1008.8 |
| 20260508222021 | 78 | 62 | 3.5 | 6.1 | 0.00 | 0.06 | 0.06 | 63 | 1008.6 |
| 20260508221025 | 78 | 77 | 4.3 | 6.1 | 0.00 | 0.06 | 0.06 | 63 | 1008.6 |
| 20260508220022 | 78 | 57 | 4.3 | 7.8 | 0.00 | 0.06 | 0.06 | 62 | 1008.7 |
| 20260508215041 | 78 | 77 | 4.3 | 7.8 | 0.00 | 0.06 | 0.06 | 61 | 1008.8 |
| 20260508214019 | 78 | 142 | 3.5 | 7.8 | 0.00 | 0.06 | 0.06 | 61 | 1008.9 |
| 20260508213022 | 78 | 101 | 4.3 | 7.0 | 0.00 | 0.06 | 0.06 | 60 | 1008.9 |
| 20260508212019 | 78 | 72 | 3.5 | 7.8 | 0.00 | 0.06 | 0.06 | 60 | 1009.1 |
| 20260508211024 | 78 | 86 | 4.3 | 6.1 | 0.00 | 0.06 | 0.06 | 60 | 1009.2 |
| 20260508210022 | 79 | 42 | 3.5 | 6.1 | 0.00 | 0.06 | 0.06 | 59 | 1009.5 |
| 20260508205019 | 77 | 107 | 3.5 | 7.0 | 0.00 | 0.06 | 0.06 | 60 | 1009.7 |
| 20260508204024 | 78 | 62 | 3.5 | 7.0 | 0.00 | 0.06 | 0.06 | 59 | 1009.4 |
| 20260508203022 | 77 | 48 | 4.3 | 7.0 | 0.00 | 0.06 | 0.06 | 59 | 1009.5 |
| 20260508202018 | 76 | 86 | 4.3 | 6.1 | 0.00 | 0.06 | 0.06 | 61 | 1010.4 |